Location: Caltech
(34.1382°N, 118.1253°W)
Time: 22:59:57
(UTC-08:00)

Meteor 2-4 Rocket - Visible Passes

Search period start: 12 December 2017 00:00
Search period end: 22 December 2017 00:00
Orbit: 798 x 909 km, 81.2° (Epoch: 12 December)

Date Brightness Start Highest point End Pass type
(mag) Time Alt. Az. Time Alt. Az. Time Alt. Az.
12 Dec 5.7 04:21:02 10° NNE 04:25:27 25° ENE 04:29:55 10° SE visible
12 Dec 4.4 06:03:37 10° NNW 06:08:23 32° W 06:13:15 10° SSW visible
12 Dec 4.1 17:26:21 10° SSE 17:31:27 40° E 17:36:28 10° NNE visible
12 Dec 6.0 19:10:33 10° WSW 19:14:31 20° WNW 19:18:28 10° NNW visible
13 Dec 5.8 04:10:06 10° NNE 04:14:24 23° ENE 04:18:44 10° SE visible
13 Dec 4.3 05:52:29 10° NNW 05:57:22 35° W 06:02:21 10° SSW visible
13 Dec 4.2 17:15:26 10° SSE 17:20:26 37° E 17:25:21 10° NNE visible
13 Dec 5.9 18:59:20 10° WSW 19:03:28 22° WNW 19:07:34 10° NNW visible
14 Dec 5.8 03:59:11 10° NNE 04:03:20 22° ENE 04:07:32 10° ESE visible
14 Dec 4.2 05:41:23 10° NNW 05:46:22 37° W 05:51:27 10° SSW visible
14 Dec 4.3 17:04:31 10° SSE 17:09:25 34° E 17:14:14 10° NNE visible
14 Dec 5.8 18:48:07 10° SW 18:52:23 23° WNW 18:56:39 10° NNW visible
15 Dec 5.9 03:48:58 13° NNE 03:52:16 20° ENE 03:56:19 10° ESE visible
15 Dec 4.1 05:31:07 14° NNW 05:35:20 40° W 05:40:31 10° SSW visible
15 Dec 5.7 18:36:55 10° SW 18:41:20 25° WNW 18:45:42 10° NNW visible
16 Dec 6.0 03:39:09 16° NE 03:41:12 19° ENE 03:45:05 10° ESE visible
16 Dec 4.0 05:21:19 23° NW 05:24:20 44° W 05:29:36 10° SSW visible
16 Dec 5.7 18:25:45 10° SW 18:30:16 26° WNW 18:34:46 10° NNW visible
17 Dec 6.0 03:29:22 17° ENE 03:30:08 18° ENE 03:33:50 10° ESE visible
17 Dec 3.9 05:11:32 35° NW 05:13:19 47° W 05:18:39 10° SSW visible
17 Dec 5.6 18:14:35 10° SW 18:19:12 28° WNW 18:23:49 10° NNW visible
18 Dec 6.2 03:19:36 16° ENE 03:19:36 16° ENE 03:22:33 10° ESE visible
18 Dec 3.8 05:01:45 49° WNW 05:02:17 51° W 05:07:43 10° SSW visible
18 Dec 5.5 18:03:25 10° SW 18:08:09 30° WNW 18:12:51 10° NNW visible
19 Dec 6.4 03:09:49 14° E 03:09:49 14° E 03:11:15 10° ESE visible
19 Dec 3.9 04:51:59 51° WSW 04:51:59 51° WSW 04:56:45 10° S visible
19 Dec 5.4 17:52:16 10° SW 17:57:05 32° WNW 18:01:53 10° NNW visible
20 Dec 4.4 04:42:11 38° SSW 04:42:11 38° SSW 04:45:48 10° S visible
20 Dec 5.2 17:41:08 10° SW 17:46:02 35° WNW 17:50:55 10° N visible
21 Dec 5.1 04:32:22 26° SSW 04:32:22 26° SSW 04:34:50 10° S visible
21 Dec 5.1 17:30:00 10° SW 17:34:58 37° WNW 17:39:56 10° N visible
